Weather History for Spokane Fairchild, WA

Change the Weather History Date:

Saturday, January 19, 2013

  Actual Average Record
Temperature  
Mean Temperature 17 °F -  
Max Temperature 24 °F 32 °F 44 °F (2005)
Min Temperature 10 °F 23 °F 8 °F (2000)
Degree Days  
Heating Degree Days 48    
Moisture  
Dew Point 16 °F    
Average Humidity 100    
Maximum Humidity 100    
Minimum Humidity 99    
Precipitation  
Precipitation 0.00 in - - ()
Snow  
Snow 0.00 in - - ()
Snow Depth 3.00 in    
Sea Level Pressure  
Sea Level Pressure 30.35 in    
Wind  
Wind Speed 1 mph (NE)    
Max Wind Speed 5 mph    
Max Gust Speed -    
Visibility 4 miles    
Events Fog , Snow    
Averages and records for this station are not official NWS values.
T = Trace of Precipitation, MM = Missing Value Source: NWS Daily Summary

Daily Weather History Graph

Daily Weather History Graph

Search for Another Location

Airport:

Trip Planner

Search our weather history database for the weather conditions in past years. The results will help you decide how hot, cold, wet, or windy it might be!

Date:

Astronomy

Jan. 19, 2013 Rise Set
Actual Time 7:30 AM PST 4:32 PM PST
Civil Twilight 6:56 AM PST 5:06 PM PST
Nautical Twilight 6:18 AM PST 5:44 PM PST
Astronomical Twilight 5:41 AM PST 6:21 PM PST
Moon 11:06 AM PST (1/19) 1:03 AM PST (1/19)
Length of Visible Light 10h 10m
Length of Day
9h 01m
First Quarter, 58% of the Moon is Illuminated
Jan 19
First Quarter
Jan 26
Full
Feb 3
Last Quarter
Feb 9
New
Feb 17
First Quarter

Hourly Weather History & Observations

Time (PST) Temp. Windchill Dew Point Humidity Pressure Visibility Wind Dir Wind Speed Gust Speed Precip Events Conditions
12:04 AM 12.2 °F - 12.2 °F 100% 30.29 in 0.8 mi North 1.2 mph - N/A   Scattered Clouds
12:17 AM 12.2 °F - 12.2 °F 100% 30.29 in 0.5 mi Calm Calm - N/A Fog Light Freezing Fog
12:27 AM 12.2 °F - 12.2 °F 100% 30.29 in 0.2 mi Calm Calm - N/A Fog Light Freezing Fog
12:37 AM 14.0 °F - 14.0 °F 100% 30.29 in 0.5 mi Calm Calm - N/A Fog Light Freezing Fog
12:42 AM 14.0 °F - 14.0 °F 100% 30.29 in 0.2 mi Calm Calm - N/A Fog Light Freezing Fog
12:45 AM 12.2 °F - 12.2 °F 100% 30.28 in 0.2 mi Calm Calm - N/A Fog , Snow Light Freezing Fog
12:58 AM 12.6 °F - 12.6 °F 100% 30.42 in 0.2 mi Calm Calm - 0.00 in Fog , Snow Light Freezing Fog
1:03 AM 12.2 °F - 12.2 °F 100% 30.29 in 0.5 mi Calm Calm - N/A Fog , Snow Light Freezing Fog
1:12 AM 14.0 °F - 14.0 °F 100% 30.29 in 0.5 mi NNE 2.3 mph - N/A Fog Light Freezing Fog
1:34 AM 14.0 °F 8.2 °F 14.0 °F 100% 30.29 in 0.8 mi NE 3.5 mph - N/A   Mostly Cloudy
1:40 AM 14.0 °F 8.2 °F 14.0 °F 100% 30.30 in 0.5 mi NNE 3.5 mph - N/A Fog Light Freezing Fog
1:45 AM 14.0 °F - 14.0 °F 100% 30.30 in 0.8 mi NNE 2.3 mph - N/A   Scattered Clouds
1:50 AM 14.0 °F 8.2 °F 14.0 °F 100% 30.30 in 1.8 mi NNE 3.5 mph - N/A   Scattered Clouds
1:52 AM 12.2 °F 6.1 °F 12.2 °F 100% 30.29 in 3.0 mi NE 3.5 mph - N/A Snow Light Snow
1:58 AM 12.9 °F - 12.9 °F 100% 30.41 in 4.0 mi NE 2.3 mph - 0.00 in Snow Light Snow
2:05 AM 12.2 °F - 12.2 °F 100% 30.30 in 0.8 mi NNE 2.3 mph - N/A   Partly Cloudy
2:10 AM 14.0 °F - 14.0 °F 100% 30.30 in 0.5 mi ENE 1.2 mph - N/A Fog Light Freezing Fog
2:21 AM 14.0 °F - 14.0 °F 100% 30.30 in 0.2 mi NNE 1.2 mph - N/A Fog Light Freezing Fog
2:26 AM 14.0 °F - 14.0 °F 100% 30.30 in 0.2 mi NNE 1.2 mph - N/A Fog Light Freezing Fog
2:31 AM 14.0 °F - 14.0 °F 100% 30.30 in 0.5 mi NE 2.3 mph - N/A Fog Light Freezing Fog
2:41 AM 14.0 °F - 14.0 °F 100% 30.30 in 0.2 mi Calm Calm - N/A Fog Light Freezing Fog
2:46 AM 14.0 °F - 14.0 °F 100% 30.30 in 0.2 mi North - - N/A Fog Light Freezing Fog
2:58 AM 12.4 °F - 12.4 °F 100% 30.43 in 0.2 mi Calm Calm - 0.00 in Fog Light Freezing Fog
2:59 AM 12.2 °F - 12.2 °F 100% 30.30 in 0.2 mi Calm Calm - N/A Fog , Snow Light Freezing Fog
3:15 AM 12.2 °F - 12.2 °F 100% 30.30 in 0.2 mi Calm Calm - N/A Fog Light Freezing Fog
3:31 AM 12.2 °F - 12.2 °F 100% 30.30 in 0.2 mi ENE 2.3 mph - N/A Fog Light Freezing Fog
3:36 AM 12.2 °F - 12.2 °F 100% 30.30 in 0.2 mi East 2.3 mph - N/A Fog Light Freezing Fog
3:43 AM 10.4 °F - 10.4 °F 100% 30.30 in 0.5 mi Calm Calm - N/A Fog Light Freezing Fog
3:55 AM 10.4 °F - 10.4 °F 100% 30.30 in 0.5 mi NNE 1.2 mph - N/A Fog Light Freezing Fog
3:56 AM 12.2 °F - 12.2 °F 100% 30.30 in 0.5 mi NNE 2.3 mph - N/A Fog , Snow Light Freezing Fog
3:59 AM 12.2 °F - 12.2 °F 100% 30.43 in 0.5 mi NE 2.3 mph - 0.00 in Fog , Snow Light Freezing Fog
4:15 AM 12.2 °F - 12.2 °F 100% 30.30 in 0.2 mi Calm Calm - N/A Fog Light Freezing Fog
4:21 AM 12.2 °F - 12.2 °F 100% 30.30 in 0.2 mi Calm Calm - N/A Fog Light Freezing Fog
4:31 AM 12.2 °F - 12.2 °F 100% 30.31 in 0.2 mi Calm Calm - N/A Fog Light Freezing Fog
4:43 AM 12.2 °F - 12.2 °F 100% 30.31 in 0.2 mi Calm Calm - N/A Fog Light Freezing Fog
4:48 AM 14.0 °F - 14.0 °F 100% 30.31 in 0.5 mi Calm Calm - N/A Fog Light Freezing Fog
4:58 AM 13.3 °F - 13.3 °F 100% 30.45 in 0.8 mi NNE 1.2 mph - 0.00 in   Clear
5:05 AM 14.0 °F - 14.0 °F 100% 30.31 in 1.0 mi ENE 2.3 mph - N/A Snow Light Snow
5:11 AM 14.0 °F - 14.0 °F 100% 30.31 in 1.0 mi ENE 2.3 mph - N/A Snow Light Snow
5:30 AM 14.0 °F - 14.0 °F 100% 30.32 in 2.5 mi NE 2.3 mph - N/A Snow Light Snow
5:32 AM 14.0 °F - 14.0 °F 100% 30.32 in 3.0 mi NE 2.3 mph - N/A   Clear
5:58 AM 14.9 °F - 14.9 °F 100% 30.46 in 9.0 mi NNE 2.3 mph - 0.00 in   Clear
6:01 AM 14.0 °F - 14.0 °F 100% 30.32 in 9.0 mi NNE 2.3 mph - N/A Snow Light Snow
6:29 AM 15.8 °F - 15.8 °F 100% 30.32 in 10.0 mi NE 1.2 mph - N/A   Clear
6:58 AM 16.2 °F - 16.2 °F 100% 30.46 in 10.0 mi NE 2.3 mph - 0.00 in   Clear
7:08 AM 15.8 °F - 15.8 °F 100% 30.33 in 9.0 mi ENE 1.2 mph - N/A Snow Light Snow
7:22 AM 15.8 °F - 15.8 °F 100% 30.33 in 7.0 mi Calm Calm - N/A   Clear
7:58 AM 15.8 °F - 15.8 °F 100% 30.47 in 5.0 mi NE 1.2 mph - 0.00 in   Clear
8:18 AM 15.8 °F - 15.8 °F 100% 30.34 in 6.0 mi Calm Calm - N/A Snow Light Snow
8:30 AM 15.8 °F - 15.8 °F 100% 30.35 in 6.0 mi Calm Calm - N/A   Clear
8:37 AM 15.8 °F - 15.8 °F 100% 30.35 in 6.0 mi NE 1.2 mph - N/A Snow Light Snow
8:45 AM 15.8 °F - 15.8 °F 100% 30.35 in 6.0 mi NE 1.2 mph - N/A   Clear
8:58 AM 16.2 °F - 16.2 °F 100% 30.49 in 7.0 mi NE 2.3 mph - 0.00 in   Clear
9:56 AM 19.4 °F 14.3 °F 19.4 °F 100% 30.37 in 8.0 mi ENE 3.5 mph - N/A   Clear
9:59 AM 19.8 °F 14.7 °F 19.8 °F 100% 30.50 in 8.0 mi ENE 3.5 mph - 0.00 in   Clear
10:59 AM 21.9 °F 17.2 °F 21.9 °F 100% 30.49 in 10.0 mi ENE 3.5 mph - 0.00 in   Partly Cloudy
11:01 AM 21.2 °F 16.4 °F 21.2 °F 100% 30.36 in 10.0 mi ENE 3.5 mph - N/A   Partly Cloudy
11:58 AM 23.0 °F 17.0 °F 23.0 °F 100% 30.49 in 10.0 mi NNE 4.6 mph - N/A   Clear
12:47 PM 23.0 °F - 23.0 °F 100% 30.34 in 10.0 mi NE 2.3 mph - N/A   Clear
2:55 PM 24.8 °F - 24.8 °F 100% 30.33 in 10.0 mi NE 1.2 mph - N/A   Clear
3:35 PM 24.8 °F - 24.8 °F 100% 30.33 in 10.0 mi Calm Calm - N/A   Clear
3:49 PM 24.8 °F - 24.8 °F 100% 30.33 in 10.0 mi Calm Calm - N/A   Clear
3:55 PM 24.8 °F - 24.8 °F 100% 30.44 in 10.0 mi Calm Calm - N/A   Clear
4:55 PM 24.8 °F - 24.8 °F 100% 30.34 in 10.0 mi North 2.3 mph - N/A   Clear
4:58 PM 24.8 °F 20.5 °F 24.8 °F 100% 30.34 in 10.0 mi North 3.5 mph - N/A   Clear
5:55 PM 23.0 °F - 22.8 °F 99% 30.45 in 10.0 mi Calm Calm - N/A   Clear
6:55 PM 23.4 °F - 23.4 °F 100% 30.46 in 10.0 mi Calm Calm - N/A   Clear
7:58 PM 23.5 °F 17.6 °F 23.5 °F 100% 30.47 in 10.0 mi NNE 4.6 mph - N/A   Clear
8:55 PM 23.9 °F - 23.9 °F 100% 30.48 in 10.0 mi Calm Calm - N/A   Clear
9:55 PM 23.0 °F - 23.0 °F 100% 30.38 in 10.0 mi North 1.2 mph - N/A   Clear
10:55 PM 21.2 °F 16.4 °F 21.2 °F 100% 30.37 in 10.0 mi East 3.5 mph - N/A   Partly Cloudy
11:58 PM 22.3 °F 16.1 °F 22.3 °F 100% 30.49 in 10.0 mi North 4.6 mph - N/A   Clear